Shelbyville, IN

12:41 AM EST on December 05, 2016 (GMT -0500)
Shelbyville Municipal

Weather History for KGEZ - January, 2015

Change the Weather History Date:

Thursday, January 29, 2015

  Actual Average Record
Temperature  
Mean Temperature 41 °F 29 °F  
Max Temperature 47 °F 37 °F 66 °F (2013)
Min Temperature 34 °F 21 °F 2 °F (2014)
Degree Days  
Heating Degree Days 24 36  
Month to date heating degree days 1060 1044  
Since 1 July heating degree days 3141 3148  
Cooling Degree Days 0 0  
Month to date cooling degree days 0 0  
Year to date cooling degree days 0 0  
Moisture  
Dew Point 29 °F    
Average Humidity 67    
Maximum Humidity 82    
Minimum Humidity 52    
Precipitation  
Precipitation T in 0.06 in 0.56 in (2008)
Month to date precipitation 1.86 2.27  
Year to date precipitation 1.86 2.27  
Sea Level Pressure  
Sea Level Pressure 30.00 in    
Wind  
Wind Speed 17 mph (West)    
Max Wind Speed 30 mph    
Max Gust Speed 35 mph    
Visibility 8 miles    
Events      
T = Trace of Precipitation, MM = Missing Value Source: NWS Daily Summary

Daily Weather History Graph

Daily Weather History Graph

Search for Another Location

Airport or City:

Trip Planner

Search our weather history database for the weather conditions in past years. The results will help you decide how hot, cold, wet, or windy it might be!

Date:

Astronomy

Jan. 29, 2015 Rise Set
Actual Time 7:53 AM EST 5:59 PM EST
Civil Twilight 7:25 AM EST 6:28 PM EST
Nautical Twilight 6:52 AM EST 7:00 PM EST
Astronomical Twilight 6:20 AM EST 7:32 PM EST
Moon 1:47 PM EST (1/29) 3:25 AM EST (1/29)
Length of Visible Light 11h 03m
Length of Day
10h 05m
Waxing Gibbous, 75% of the Moon is Illuminated
Jan 29
Waxing Gibbous
Feb 3
Full
Feb 11
Last Quarter
Feb 18
New
Feb 25
First Quarter

Hourly Weather History & Observations

Time (EST) Temp. Windchill Dew Point Humidity Pressure Visibility Wind Dir Wind Speed Gust Speed Precip Events Conditions
12:53 AM 35.1 °F 25.2 °F 21.9 °F 59% 30.03 in 10.0 mi SSE 16.1 mph - N/A   Clear
1:53 AM 36.0 °F 26.3 °F 21.0 °F 55% 30.00 in 10.0 mi South 16.1 mph - N/A   Clear
2:53 AM 37.0 °F 27.0 °F 21.9 °F 54% 29.96 in 10.0 mi South 18.4 mph - N/A   Scattered Clouds
3:53 AM 37.9 °F 29.2 °F 23.0 °F 55% 29.91 in 10.0 mi South 15.0 mph - N/A   Overcast
4:53 AM 39.0 °F 29.3 °F 25.0 °F 57% 29.87 in 10.0 mi South 19.6 mph - 0.00 in   Overcast
5:53 AM 39.0 °F 30.3 °F 28.0 °F 65% 29.85 in 10.0 mi South 16.1 mph - N/A   Overcast
6:53 AM 39.0 °F 30.6 °F 28.9 °F 67% 29.82 in 10.0 mi South 15.0 mph - N/A   Scattered Clouds
7:53 AM 39.0 °F 30.3 °F 30.0 °F 70% 29.81 in 10.0 mi South 16.1 mph - N/A   Clear
8:53 AM 41.0 °F 32.2 °F 30.9 °F 67% 29.80 in 10.0 mi South 18.4 mph - N/A   Scattered Clouds
9:53 AM 43.0 °F 34.8 °F 32.0 °F 65% 29.80 in 10.0 mi South 18.4 mph 24.2 mph N/A   Mostly Cloudy
10:53 AM 44.1 °F 37.4 °F 34.0 °F 68% 29.82 in 10.0 mi WSW 13.8 mph - N/A   Overcast
11:01 AM 46.9 °F - 36.0 °F 66% 29.81 in 10.0 mi WSW 18.4 mph 29.9 mph N/A   Overcast
11:10 AM 46.0 °F 38.3 °F 36.0 °F 68% 29.82 in 10.0 mi WSW 20.7 mph 28.8 mph N/A   Overcast
11:53 AM 41.0 °F 30.0 °F 34.0 °F 76% 29.86 in 8.0 mi West 28.8 mph 35.7 mph N/A   Overcast
12:29 PM 39.9 °F 31.8 °F 33.1 °F 77% 29.86 in 7.0 mi West 15.0 mph 29.9 mph N/A   Overcast
12:53 PM 39.0 °F 29.3 °F 33.1 °F 79% 29.89 in 5.0 mi West 19.6 mph 27.6 mph N/A   Haze
1:53 PM 37.0 °F 27.7 °F 32.0 °F 82% 29.93 in 5.0 mi West 16.1 mph 26.5 mph N/A   Haze
2:53 PM 36.0 °F 25.6 °F 30.9 °F 82% 29.96 in 4.0 mi West 18.4 mph - N/A   Haze
3:15 PM 36.0 °F 26.7 °F 30.9 °F 82% 29.96 in 2.5 mi West 15.0 mph 24.2 mph N/A   Haze
3:35 PM 36.0 °F 27.1 °F 30.9 °F 82% 29.97 in 2.5 mi West 13.8 mph 24.2 mph N/A   Haze
3:53 PM 35.1 °F 24.5 °F 30.9 °F 85% 30.00 in 3.0 mi WNW 18.4 mph - N/A   Overcast
4:03 PM 35.1 °F 25.2 °F 30.9 °F 85% 29.99 in 2.5 mi WNW 16.1 mph - N/A   Overcast
4:24 PM 35.1 °F 24.5 °F 30.9 °F 85% 30.01 in 3.0 mi WNW 18.4 mph - N/A   Overcast
4:48 PM 35.6 °F 25.2 °F 30.2 °F 81% 30.02 in 5.0 mi WNW 18.4 mph 27.6 mph N/A   Haze
4:53 PM 36.0 °F 25.6 °F 30.0 °F 79% 30.04 in 5.0 mi WNW 18.4 mph 24.2 mph N/A   Haze
5:53 PM 35.1 °F 25.2 °F 28.9 °F 78% 30.09 in 6.0 mi WNW 16.1 mph 23.0 mph N/A   Haze
6:53 PM 34.0 °F 23.0 °F 28.9 °F 82% 30.13 in 7.0 mi NW 18.4 mph - N/A   Overcast
7:53 PM 35.1 °F 26.4 °F 28.0 °F 76% 30.17 in 9.0 mi WNW 12.7 mph - N/A   Overcast
8:53 PM 34.0 °F 25.0 °F 28.0 °F 79% 30.19 in 8.0 mi NW 12.7 mph - N/A   Overcast
9:53 PM 35.1 °F 26.9 °F 28.0 °F 76% 30.21 in 8.0 mi NW 11.5 mph - N/A   Overcast
10:09 PM 35.1 °F 26.4 °F 28.9 °F 78% 30.20 in 8.0 mi NW 12.7 mph - N/A   Overcast
10:27 PM 35.1 °F 26.9 °F 28.9 °F 78% 30.20 in 9.0 mi WNW 11.5 mph - N/A   Overcast
10:53 PM 35.1 °F 26.4 °F 28.0 °F 76% 30.22 in 10.0 mi WNW 12.7 mph - N/A   Overcast
11:18 PM 35.1 °F 26.9 °F 28.0 °F 76% 30.21 in 10.0 mi WNW 11.5 mph - N/A   Overcast
11:40 PM 35.1 °F 25.9 °F 28.0 °F 76% 30.21 in 10.0 mi WNW 13.8 mph - N/A   Overcast
11:53 PM 35.1 °F 26.4 °F 28.0 °F 76% 30.24 in 10.0 mi WNW 12.7 mph - N/A   Overcast